Location: Casone le Fosse
(44.6547°N, 12.1103°E)
Time: 03:41:56
(UTC+00:00)

Meteor 2-15 Rocket - Pass Details

Date: 29 October 2020
Orbit: 938 x 957 km, 82.5° (Epoch: 01 December)

Event Time Altitude Azimuth Distance (km) Brightness Sun altitude
Rises 17:32:58 0° 178° (S) 3,621 7.5 -16.3°
Reaches altitude 10° 17:35:28 10° 176° (S) 2,679 6.8 -16.7°
Maximum altitude 17:41:32 69° 95° (E) 1,022 4.4 -17.8°
Drops below altitude 10° 17:47:39 10° 13° (NNE) 2,690 6.7 -18.9°
Sets 17:50:10 0° 12° (NNE) 3,638 7.4 -19.4°
